116P/Wild 4 (2016)

Japanese version
Home page
Updated on November 13, 2016

---------------------------------------------------------------------

* Profile

* Pictures

* Orbital Elements

Epoch 2016 Jan. 13.0 TT = JDT 2457400.5
T 2016 Jan. 11.54718 TT                                 MPCW
q   2.1870915            (2000.0)            P               Q
n   0.15149108     Peri.  173.31372     -0.96889443     +0.24644503
a   3.4850687      Node    20.99523     -0.22986846     -0.86246976
e   0.3724395      Incl.    3.60817     -0.09167369     -0.44205289
P   6.51
From 2438 observations 2002 Nov. 16-2016 Oct. 11, mean residual 0".7.
     Nongravitational parameters A1 = +1.27, A2 = -0.0409.

* Finding Charts

* Magnitudes Graph

        m1 = 3.5 + 5 log d + 25.0 log r

---------------------------------------------------------------------

The orbital elements are published on M.P.E.C. 2016-V116.
The charts are made with StellaNavigator Ver.8 (AstroArts).
The magnitudes graphs are made with Comet for Windows.

---------------------------------------------------------------------

Copyright(C) Seiichi Yoshida (comet@aerith.net). All rights reserved.